Skip Page Navigation
NASA JPL Caltech
NASA Logo - Jet Propulsion Laboratory + View the NASA Portal
+ Near-Earth Object (NEO) Program
Search JPL
JPL Home Earth Solar System Stars & Galaxies Technology
JPL Solar System Dynamics
BODIES ORBITS EPHEMERIDES TOOLS PHYSICAL DATA DISCOVERY FAQ SITE MAP
JPL Small-Body Database Browser
Search: [ help ]  
13241 Biyo (1998 KM41)
Classification: Main-belt Asteroid          SPK-ID: 2013241
Ephemeris | Orbit Diagram | Orbital Elements | Physical Parameters | Discovery Circumstances ]

[ hide orbit diagram ]
Orbit Diagram
Note: Make sure you have Java enabled on your browser to see the applet. This applet is provided as a 3D orbit visualization tool. The applet was implemented using 2-body methods, and hence should not be used for determining accurate long-term trajectories (over several years or decades) or planetary encounter circumstances. For accurate long-term ephemerides, please instead use our Horizons system.
Orbit Viewer

Additional Notes: the orbits shown in the applet are color coded. The planets are white lines, and the asteroid/comet is a blue line. The bright white line indicates the portion of the orbit that is above the ecliptic plane, and the darker portion is below the ecliptic plane. Likewise for the asteroid/comet orbit, the light blue indicates the portion above the ecliptic plane, and the dark blue the portion below the ecliptic plane.

Orbit Viewer applet originally written and kindly provided by Osamu Ajiki (AstroArts), and further modified by Ron Baalke (JPL).


Orbital Elements at Epoch 2456400.5 (2013-Apr-18.0) TDB
Reference: MPO233595 (heliocentric ecliptic J2000)
 Element Value Uncertainty (1-sigma)   Units 
e 0.0649860 n/a  
a 2.2730984 n/a AU
q 2.1253788 n/a AU
i 7.30420 n/a deg
node 56.78365 n/a deg
peri 93.89490 n/a deg
M 212.97455 n/a deg
tp 2456911.7293651
(2014-Sep-11.22936510)
n/a JED
period 1251.7735632
3.43
n/a
n/a
d
yr
n 0.28759195 n/a deg/d
Q 2.4208180 n/a AU
  Orbit Determination Parameters
   # obs. used (total)      664  
   first obs. used      1975-??-??  
   last obs. used      2012-06-19  
   # oppositions      13  
   planetary ephem.      DE403  
   condition code      0  
   fit RMS      0.55  
   data source      MPC:mpn  
   producer      MPCLINUX  

Additional Information
 T_jup = 3.598 

Ephemeris | Orbit Diagram | Orbital Elements | Physical Parameters | Discovery Circumstances ]

Physical Parameter Table
Parameter Symbol Value Units Sigma Reference Notes
absolute magnitude H 14.2 mag n/a PDS3 (MPC 37551)  
rotation period rot_per 4.4 h n/a Asteroid Lightcurve DataBase (Rev. 2013-May-01) Result based on less than full coverage, so that the period may be wrong by 30 percent or so.
Published Reference List:
[Albanesi, R.; Calabresi, M.; Haver, R. (2011) Minor Planet Bul. 38, 181-182.]

13241 Biyo           Discovered 1998 May 22 by the Lincoln Laboratory Near-Earth Asteroid Research Team at Socorro.
Josette Biyo (b. 1958), a 2002 Intel Excellence in Teaching Award finalist, is a teacher at the Philippine Science High School, Western Visayas, Iloilo, Philippines.
NOTE: some special characters may not display properly (any characters within {} are an attempt to place the proper accent above a character)
Reference: 20020724/MPCPages.arcLast Updated: 2003-10-02

Alternate Designations
 1998 KM41 = 1975 UB1 
Ephemeris | Orbit Diagram | Orbital Elements | Physical Parameters | Discovery Circumstances ]
ABOUT SSD CREDITS/AWARDS PRIVACY/COPYRIGHT GLOSSARY LINKS
FirstGov 2013-May-21 18:41 UT
(server date/time)  
NASA Home Page
Site Manager:   Donald K. Yeomans
Webmaster  Alan B. Chamberlin